Vorticity
11 -4 -3 -17 -11 15 9 3 9 -2 -1 7 2 6 7 4 0 9 8 6 4 14 17 12 1 4 7 13 15 20 14 0 -0 -2 -1 -2 -3 2 5 -2 5 5 12 7
6 -9 8 14 1 20 18 17 -4 4 21 14 18 2 14 7 -12 9 10 8 3 8 19 11 6 5 9 13 14 14 17 19 13 -0 1 2 3 3 1 6 -2 6 2 14
27 -19 29 13 16 15 7 5 -5 -4 7 6 15 3 26 48 46 20 29 23 32 18 18 13 12 9 10 10 12 10 15 19 20 21 18 13 5 4 1 -2 6 1 3 3
-16 30 3 17 -13 12 -5 18 6 8 13 -0 33 13 2 -7 15 40 22 20 25 16 3 9 14 15 14 8 13 10 13 9 14 17 16 15 19 21 14 6 7 2 -0 5
-29 -11 -2 -7 12 -10 -21 32 -2 7 9 9 -0 0 -3 52 14 10 14 11 11 11 12 6 8 14 17 13 12 9 7 5 6 6 15 10 9 11 14 14 8 9 5 1
1 3 8 -6 -7 43 21 7 13 -5 24 29 -4 -43 34 19 17 34 6 18 14 19 21 16 19 22 22 16 16 18 13 10 7 9 8 11 13 7 12 21 15 8 7 5
35 8 -10 22 5 -5 16 14 35 60 13 2 30 33 -65 -60 -4 36 15 -2 1 2 2 -2 5 9 8 15 13 18 20 15 11 5 1 5 10 14 15 12 19 15 10 8
14 63 29 30 7 -39 -1 13 -70 18 -2 22 43 41 -42 35 46 14 29 24 6 13 19 26 15 10 9 5 10 3 5 9 6 2 17 13 11 9 9 13 12 8 9 9
16 23 -9 22 31 52 21 -2 27 -31 4 20 6 40 10 24 9 6 16 20 15 14 12 5 1 4 -13 -4 4 4 -11 -4 8 5 -7 4 5 6 6 11 9 14 10 8
24 -2 19 34 17 2 -15 10 19 28 8 6 36 -8 -22 13 38 26 21 12 13 14 13 16 14 12 11 12 18 23 22 18 19 22 23 17 7 9 9 7 5 9 11 10
-9 18 14 39 34 17 29 33 4 10 7 21 13 2 51 11 24 11 8 7 13 9 16 14 13 7 9 9 4 -7 10 5 -2 4 10 7 13 19 11 16 10 4 2 10
25 9 12 4 -19 -9 -4 -8 2 -1 17 11 0 8 37 5 5 1 5 9 3 -1 7 7 6 8 15 15 10 13 14 15 8 12 14 14 10 9 7 7 8 12 17 16
19 15 8 16 19 16 15 21 7 22 19 12 3 26 21 -4 -3 -6 19 17 22 22 12 6 -1 8 12 12 11 8 5 11 8 9 10 9 9 13 12 10 10 15 9 9
18 9 7 22 16 12 4 7 17 8 7 22 -2 6 -1 0 -25 -8 7 4 6 4 2 -0 8 14 13 8 13 6 9 9 5 3 4 8 10 11 11 8 9 13 8 15
10 8 -0 5 5 6 0 2 2 6 1 -1 6 7 8 7 4 9 10 7 1 3 10 10 4 3 3 12 14 8 10 10 7 6 8 10 6 0 3 10 17 15 9 6
7 7 0 12 17 9 8 8 6 3 4 2 1 -2 8 9 13 5 -4 -1 12 15 4 7 10 12 12 9 13 14 12 13 15 5 8 11 3 22 11 12 8 13 12 7
11 8 5 17 5 11 31 33 24 15 12 14 12 11 22 13 15 10 17 18 12 10 11 10 11 11 9 14 17 16 18 19 21 22 6 9 6 4 11 10 14 20 14 16
-2 5 7 5 10 15 16 16 11 14 15 17 15 15 22 14 9 7 9 8 10 11 10 5 4 6 5 3 1 5 7 14 20 22 25 18 10 14 5 10 11 10 19 12
9 4 -7 0 5 -19 0 34 14 14 15 16 17 15 12 10 7 14 12 18 9 3 4 5 5 7 8 9 4 7 0 1 8 19 14 23 20 20 7 18 18 15 5 12
37 13 -3 7 4 11 16 12 -8 -7 13 24 16 16 13 15 13 7 1 -5 6 7 9 11 12 10 9 7 4 7 5 3 2 25 11 14 19 14 18 26 9 15 13 9
19 25 5 4 1 13 -0 8 18 13 7 5 6 -3 -5 1 1 -4 6 5 3 7 12 15 14 12 9 8 11 13 14 5 4 13 19 12 15 12 23 11 -17 -17 10 16
18 9 35 18 20 21 13 22 9 7 -1 2 -0 3 6 5 2 2 5 7 7 7 5 4 8 10 10 10 16 10 8 -1 17 6 19 14 18 22 7 7 21 21 15 15
14 -4 11 -4 18 9 4 9 9 4 2 4 2 1 2 2 -0 2 5 5 9 11 10 8 9 11 8 7 8 18 -1 9 17 12 20 12 23 11 7 9 24 26 29 15
23 -0 7 19 29 20 -4 3 6 5 3 1 1 3 6 7 7 9 11 12 11 12 12 12 12 13 14 10 11 17 16 21 20 15 18 29 -18 12 32 22 18 6 3 8
8 18 14 5 4 9 10 8 1 2 5 7 7 9 13 15 16 17 14 15 19 22 22 21 19 13 13 15 20 12 28 23 16 19 8 14 20 22 9 7 18 28 34 31
13 7 5 5 2 3 5 1 4 9 13 12 13 12 21 24 16 15 21 19 16 11 9 7 8 7 12 13 19 35 28 27 25 23 18 8 -8 37 26 17 19 -8 0 -1
Height
3038 3040 3027 3032 3033 3036 3037 3037 3033 3036 3040 3035 3027 3005 3022 3024 3020 3021 3022 3021 3019 3024 3029 3030 3031 3033 3034 3038 3041 3046 3050 3056 3059 3062 3065 3070 3074 3080 3084 3087 3092 3094 3096 3100
3030 3012 3026 3029 3026 3024 3026 3026 3021 3026 3029 3027 3019 2983 3008 3012 3005 3007 3009 3009 3009 3013 3017 3018 3021 3023 3024 3028 3031 3035 3039 3043 3048 3052 3057 3061 3067 3071 3076 3079 3082 3085 3089 3092
3010 2992 3018 3019 3019 3018 3015 3012 3019 3020 3025 3017 3013 2974 2995 2994 2994 2995 2995 2995 2998 3002 3004 3006 3011 3013 3014 3017 3021 3026 3029 3033 3036 3041 3045 3050 3054 3057 3060 3065 3071 3076 3081 3084
2995 2989 3006 3007 3001 3013 3004 3012 3013 3014 3017 3008 3012 2967 2982 2986 2985 2985 2987 2988 2988 2994 2992 2993 2997 3002 3004 3006 3011 3017 3021 3024 3027 3031 3034 3037 3041 3045 3051 3056 3064 3068 3072 3075
2976 2980 2988 2995 2979 3003 2986 3008 3004 3004 3004 3005 2997 2992 2973 2978 2980 2979 2978 2978 2979 2981 2984 2987 2987 2990 2995 2999 3003 3008 3013 3017 3021 3023 3026 3030 3033 3038 3043 3048 3052 3056 3061 3065
2962 2978 2980 2978 2984 2988 2986 2992 2995 2995 2994 2989 2965 2985 2951 2967 2972 2974 2970 2972 2974 2975 2979 2981 2983 2985 2986 2990 2996 3002 3007 3010 3013 3015 3019 3022 3025 3029 3032 3035 3040 3046 3051 3056
2956 2956 2966 2972 2971 2974 2975 2982 2978 2977 2973 2958 2958 2975 2939 2957 2962 2966 2962 2967 2970 2972 2974 2977 2980 2982 2984 2984 2989 2994 2999 3004 3007 3008 3010 3014 3018 3021 3024 3027 3031 3036 3040 3044
2941 2945 2947 2952 2952 2955 2961 2966 2961 2955 2951 2951 2955 2953 2947 2952 2952 2957 2956 2960 2964 2967 2968 2971 2974 2979 2979 2981 2983 2988 2991 2995 2998 3000 3003 3005 3009 3012 3016 3018 3023 3026 3030 3036
2932 2934 2936 2936 2939 2950 2945 2948 2952 2953 2952 2952 2944 2944 2950 2943 2942 2944 2951 2952 2952 2958 2960 2962 2966 2970 2974 2976 2978 2980 2984 2986 2988 2991 2993 2995 2999 3003 3007 3011 3014 3016 3020 3024
2922 2926 2925 2928 2929 2934 2937 2942 2943 2940 2939 2933 2931 2934 2934 2933 2934 2938 2942 2944 2944 2949 2954 2955 2957 2962 2963 2968 2970 2971 2974 2976 2978 2981 2983 2985 2989 2991 2995 2999 3001 3005 3009 3012
2915 2921 2922 2925 2927 2928 2927 2931 2934 2935 2935 2926 2923 2927 2926 2932 2932 2932 2935 2940 2942 2942 2946 2949 2950 2953 2956 2959 2961 2963 2965 2967 2970 2971 2973 2975 2978 2981 2983 2986 2990 2993 2997 3000
2918 2919 2922 2920 2925 2924 2928 2927 2931 2934 2926 2933 2930 2926 2928 2928 2933 2933 2935 2936 2940 2939 2944 2944 2943 2945 2948 2950 2953 2955 2955 2956 2959 2962 2963 2964 2967 2970 2973 2974 2978 2980 2983 2988
2920 2922 2922 2923 2925 2924 2922 2924 2924 2926 2927 2927 2928 2921 2925 2927 2931 2934 2936 2933 2935 2936 2937 2937 2937 2940 2942 2942 2943 2946 2949 2949 2950 2952 2953 2954 2957 2960 2962 2964 2966 2969 2971 2974
2921 2920 2921 2917 2918 2919 2921 2924 2920 2921 2927 2926 2928 2921 2924 2924 2928 2932 2934 2932 2934 2934 2935 2937 2934 2931 2935 2939 2936 2937 2939 2942 2944 2944 2945 2945 2947 2949 2951 2953 2955 2958 2960 2961
2922 2920 2918 2919 2919 2918 2920 2919 2919 2920 2921 2923 2919 2917 2918 2923 2925 2931 2927 2930 2930 2929 2929 2931 2929 2927 2930 2929 2928 2930 2930 2932 2934 2937 2937 2938 2939 2939 2940 2940 2944 2947 2948 2951
2920 2919 2917 2917 2917 2916 2914 2915 2917 2918 2918 2919 2918 2916 2919 2921 2923 2926 2921 2922 2923 2923 2922 2921 2922 2922 2922 2920 2918 2919 2922 2923 2923 2924 2925 2927 2928 2930 2930 2930 2931 2934 2937 2939
2919 2918 2917 2913 2915 2914 2912 2908 2912 2914 2915 2914 2910 2911 2915 2916 2918 2916 2913 2918 2919 2912 2913 2914 2916 2913 2911 2909 2910 2908 2911 2912 2914 2914 2915 2916 2916 2919 2917 2920 2918 2921 2927 2928
2913 2915 2915 2913 2913 2910 2904 2905 2907 2908 2908 2907 2907 2909 2910 2910 2910 2908 2911 2912 2909 2906 2907 2909 2909 2906 2901 2900 2900 2902 2903 2901 2902 2904 2905 2906 2907 2906 2905 2908 2907 2910 2916 2915
2909 2912 2912 2909 2905 2904 2904 2904 2905 2905 2906 2905 2905 2906 2905 2906 2904 2905 2905 2903 2901 2901 2902 2902 2899 2897 2894 2892 2892 2892 2891 2890 2891 2891 2893 2897 2897 2893 2893 2898 2902 2903 2897 2902
2902 2906 2909 2906 2904 2900 2900 2901 2901 2902 2903 2901 2902 2902 2903 2901 2903 2906 2900 2898 2897 2898 2896 2892 2890 2888 2886 2883 2883 2882 2880 2879 2881 2884 2885 2885 2885 2884 2884 2888 2893 2897 2885 2894
2898 2898 2899 2901 2900 2898 2898 2900 2900 2902 2903 2898 2898 2898 2898 2898 2899 2896 2894 2892 2891 2888 2886 2883 2880 2878 2877 2875 2873 2871 2871 2872 2873 2873 2875 2875 2874 2874 2873 2878 2882 2889 2880 2885
2894 2892 2893 2896 2896 2896 2895 2896 2899 2897 2896 2895 2896 2895 2893 2892 2890 2888 2885 2882 2879 2876 2874 2872 2869 2867 2866 2863 2861 2861 2860 2861 2862 2862 2864 2863 2865 2863 2863 2869 2873 2877 2874 2878
2892 2891 2891 2893 2893 2893 2894 2894 2893 2894 2893 2893 2891 2889 2886 2884 2881 2878 2874 2871 2868 2865 2862 2859 2856 2852 2849 2848 2846 2846 2848 2850 2852 2852 2853 2853 2852 2854 2859 2862 2863 2864 2867 2870
2888 2889 2890 2891 2892 2892 2892 2892 2891 2890 2889 2887 2884 2881 2877 2875 2871 2867 2864 2860 2856 2852 2848 2845 2841 2836 2833 2833 2833 2833 2833 2835 2837 2839 2841 2843 2845 2849 2852 2853 2856 2859 2861 2863
2888 2889 2890 2891 2891 2891 2890 2889 2887 2885 2883 2880 2877 2873 2869 2865 2861 2858 2853 2849 2844 2839 2834 2830 2826 2822 2818 2817 2815 2815 2816 2819 2822 2827 2831 2835 2839 2841 2847 2849 2850 2853 2855 2858
2888 2889 2889 2889 2887 2888 2888 2884 2882 2879 2876 2872 2868 2865 2861 2857 2852 2849 2845 2840 2834 2828 2823 2817 2812 2807 2802 2799 2795 2794 2797 2800 2806 2814 2821 2827 2832 2837 2841 2845 2847 2849 2854 2857